Location: Bridalveil Moraine
(37.7171°N, 119.6568°W)
Time: 09:26:02
(UTC+00:00)

DMSP B5D2-2 - Pass Details

Date: 13 June 2024
Orbit: 786 x 804 km, 98.3° (Epoch: 18 July)

Event Time Altitude Azimuth Distance (km) Brightness Sun altitude
Rises 11:57:48 0° 170° (S) 3,295 7.0 -7.2°
Reaches altitude 10° 12:00:08 10° 173° (S) 2,370 6.3 -6.8°
Maximum altitude 12:05:22 74° 258° (WSW) 838 4.1 -6.0°
Drops below altitude 10° 12:10:40 10° 343° (NNW) 2,389 6.8 -5.1°
Sets 12:13:01 0° 346° (NNW) 3,324 7.6 -4.7°
